Tabellarische Ansicht des 16.9.2021


Die einzelnen Werte des Tages

Uhrzeit Temperatur Luftdruck Luftfeuchte Wind Hi-Wind Taupunkt THW Index Wind Chill Heat Index Solar- strahlung Regen

00:00

16.9 C

1008.6 hpa

90 %

4.8 km/h aus 117

9.7 km/h aus NW

15.2 C

17.2 C

16.9 C

17.2 C

0 W/m

0.00 mm

00:05

16.9 C

1008.6 hpa

90 %

3.2 km/h aus 113

11.3 km/h aus WSW

15.2 C

17.2 C

16.9 C

17.2 C

0 W/m

0.00 mm

00:10

16.9 C

1008.6 hpa

90 %

4.8 km/h aus 116

14.5 km/h aus WSW

15.2 C

17.2 C

16.9 C

17.2 C

0 W/m

0.00 mm

00:15

16.9 C

1008.6 hpa

90 %

1.6 km/h aus 113

6.4 km/h aus W

15.2 C

17.2 C

16.9 C

17.2 C

0 W/m

0.00 mm

00:20

16.9 C

1008.6 hpa

90 %

3.2 km/h aus 116

6.4 km/h aus WSW

15.2 C

17.2 C

16.9 C

17.2 C

0 W/m

0.00 mm

00:25

16.9 C

1008.6 hpa

90 %

3.2 km/h aus 116

9.7 km/h aus W

15.2 C

17.2 C

16.9 C

17.2 C

0 W/m

0.00 mm

00:30

16.9 C

1008.7 hpa

90 %

3.2 km/h aus 116

8.0 km/h aus W

15.2 C

17.2 C

16.9 C

17.2 C

0 W/m

0.00 mm

00:35

16.8 C

1008.7 hpa

90 %

3.2 km/h aus 116

9.7 km/h aus WSW

15.2 C

17.2 C

16.8 C

17.2 C

0 W/m

0.00 mm

00:40

16.8 C

1008.7 hpa

90 %

3.2 km/h aus 113

6.4 km/h aus WSW

15.2 C

17.2 C

16.8 C

17.2 C

0 W/m

0.00 mm

00:45

16.8 C

1008.8 hpa

90 %

1.6 km/h aus 116

6.4 km/h aus WSW

15.1 C

17.1 C

16.8 C

17.1 C

0 W/m

0.00 mm

00:50

16.8 C

1008.8 hpa

90 %

1.6 km/h aus 117

4.8 km/h aus WSW

15.1 C

17.1 C

16.8 C

17.1 C

0 W/m

0.00 mm

00:55

16.8 C

1008.8 hpa

90 %

1.6 km/h aus 116

6.4 km/h aus W

15.1 C

17.1 C

16.8 C

17.1 C

0 W/m

0.00 mm

01:00

16.7 C

1009.0 hpa

90 %

3.2 km/h aus 115

8.0 km/h aus W

15.1 C

17.0 C

16.7 C

17.0 C

0 W/m

0.00 mm

01:05

16.7 C

1009.0 hpa

90 %

4.8 km/h aus 114

9.7 km/h aus W

15.0 C

16.9 C

16.7 C

16.9 C

0 W/m

0.00 mm

01:10

16.7 C

1009.0 hpa

90 %

4.8 km/h aus 117

11.3 km/h aus W

15.0 C

16.9 C

16.7 C

16.9 C

0 W/m

0.00 mm

01:15

16.6 C

1009.0 hpa

90 %

6.4 km/h aus 117

17.7 km/h aus WSW

15.0 C

16.9 C

16.6 C

16.9 C

0 W/m

0.00 mm

01:20

16.6 C

1009.0 hpa

90 %

3.2 km/h aus 117

9.7 km/h aus SW

14.9 C

16.8 C

16.6 C

16.8 C

0 W/m

0.00 mm

01:25

16.6 C

1009.0 hpa

90 %

3.2 km/h aus 115

9.7 km/h aus W

14.9 C

16.8 C

16.6 C

16.8 C

0 W/m

0.00 mm

01:30

16.5 C

1009.0 hpa

90 %

6.4 km/h aus 116

19.3 km/h aus WSW

14.9 C

16.8 C

16.5 C

16.8 C

0 W/m

0.00 mm

01:35

16.5 C

1009.0 hpa

90 %

4.8 km/h aus 117

8.0 km/h aus WSW

14.9 C

16.8 C

16.5 C

16.8 C

0 W/m

0.00 mm

01:40

16.4 C

1009.0 hpa

90 %

6.4 km/h aus 117

11.3 km/h aus WSW

14.8 C

16.7 C

16.4 C

16.7 C

0 W/m

0.00 mm

01:45

16.4 C

1009.0 hpa

89 %

4.8 km/h aus 116

9.7 km/h aus S

14.6 C

16.6 C

16.4 C

16.6 C

0 W/m

0.00 mm

01:50

16.4 C

1009.0 hpa

89 %

4.8 km/h aus 114

16.1 km/h aus W

14.6 C

16.6 C

16.4 C

16.6 C

0 W/m

0.00 mm

01:55

16.3 C

1009.0 hpa

89 %

6.4 km/h aus 116

20.9 km/h aus W

14.5 C

16.6 C

16.3 C

16.6 C

0 W/m

0.00 mm

02:00

16.3 C

1009.0 hpa

89 %

4.8 km/h aus 117

12.9 km/h aus W

14.5 C

16.6 C

16.3 C

16.6 C

0 W/m

0.00 mm

02:05

16.3 C

1009.0 hpa

89 %

6.4 km/h aus 117

16.1 km/h aus WSW

14.5 C

16.6 C

16.3 C

16.6 C

0 W/m

0.00 mm

02:10

16.3 C

1009.0 hpa

89 %

9.7 km/h aus 116

25.7 km/h aus NW

14.5 C

16.4 C

16.2 C

16.5 C

0 W/m

0.00 mm

02:15

16.1 C

1009.2 hpa

89 %

9.7 km/h aus 114

24.1 km/h aus WNW

14.3 C

16.2 C

16.0 C

16.3 C

0 W/m

0.00 mm

02:20

15.9 C

1009.2 hpa

88 %

9.7 km/h aus 117

22.5 km/h aus W

14.0 C

15.9 C

15.8 C

16.1 C

0 W/m

0.00 mm

02:25

15.8 C

1009.2 hpa

88 %

6.4 km/h aus 117

20.9 km/h aus W

13.8 C

16.0 C

15.8 C

16.0 C

0 W/m

0.00 mm

02:30

15.8 C

1009.3 hpa

88 %

8.0 km/h aus 117

17.7 km/h aus W

13.8 C

15.9 C

15.8 C

15.9 C

0 W/m

0.00 mm

02:35

15.7 C

1009.3 hpa

87 %

3.2 km/h aus 115

11.3 km/h aus WSW

13.6 C

15.8 C

15.7 C

15.8 C

0 W/m

0.00 mm

02:40

15.7 C

1009.3 hpa

88 %

1.6 km/h aus 116

4.8 km/h aus W

13.7 C

15.8 C

15.7 C

15.8 C

0 W/m

0.00 mm

02:45

15.7 C

1009.5 hpa

88 %

1.6 km/h aus 117

4.8 km/h aus W

13.7 C

15.8 C

15.7 C

15.8 C

0 W/m

0.00 mm

02:50

15.7 C

1009.5 hpa

88 %

4.8 km/h aus 117

16.1 km/h aus W

13.7 C

15.8 C

15.7 C

15.8 C

0 W/m

0.00 mm

02:55

15.6 C

1009.5 hpa

88 %

4.8 km/h aus 117

14.5 km/h aus NW

13.6 C

15.7 C

15.6 C

15.7 C

0 W/m

0.00 mm

03:00

15.6 C

1009.5 hpa

88 %

4.8 km/h aus 114

16.1 km/h aus W

13.6 C

15.7 C

15.6 C

15.7 C

0 W/m

0.00 mm

03:05

15.5 C

1009.5 hpa

88 %

3.2 km/h aus 116

8.0 km/h aus W

13.5 C

15.6 C

15.5 C

15.6 C

0 W/m

0.00 mm

03:10

15.4 C

1009.5 hpa

87 %

3.2 km/h aus 117

16.1 km/h aus WSW

13.3 C

15.6 C

15.4 C

15.6 C

0 W/m

0.00 mm

03:15

15.3 C

1009.6 hpa

87 %

6.4 km/h aus 117

19.3 km/h aus WNW

13.2 C

15.4 C

15.3 C

15.4 C

0 W/m

0.00 mm

03:20

15.3 C

1009.6 hpa

87 %

3.2 km/h aus 116

9.7 km/h aus W

13.1 C

15.3 C

15.3 C

15.3 C

0 W/m

0.00 mm

03:25

15.3 C

1009.6 hpa

87 %

4.8 km/h aus 114

16.1 km/h aus W

13.1 C

15.3 C

15.3 C

15.3 C

0 W/m

0.00 mm

03:30

15.2 C

1009.6 hpa

87 %

4.8 km/h aus 117

14.5 km/h aus W

13.1 C

15.3 C

15.2 C

15.3 C

0 W/m

0.00 mm

03:35

15.3 C

1009.6 hpa

87 %

4.8 km/h aus 117

16.1 km/h aus W

13.1 C

15.3 C

15.3 C

15.3 C

0 W/m

0.00 mm

03:40

15.2 C

1009.6 hpa

87 %

3.2 km/h aus 116

6.4 km/h aus W

13.1 C

15.3 C

15.2 C

15.3 C

0 W/m

0.00 mm

03:45

15.2 C

1009.6 hpa

87 %

3.2 km/h aus 115

8.0 km/h aus W

13.0 C

15.2 C

15.2 C

15.2 C

0 W/m

0.00 mm

03:50

15.2 C

1009.6 hpa

87 %

1.6 km/h aus 114

8.0 km/h aus WSW

13.0 C

15.2 C

15.2 C

15.2 C

0 W/m

0.00 mm

03:55

15.1 C

1009.6 hpa

87 %

3.2 km/h aus 116

8.0 km/h aus WSW

13.0 C

15.2 C

15.1 C

15.2 C

0 W/m

0.00 mm

04:00

15.1 C

1009.6 hpa

87 %

3.2 km/h aus 117

6.4 km/h aus W

13.0 C

15.2 C

15.1 C

15.2 C

0 W/m

0.00 mm

04:05

15.1 C

1009.6 hpa

87 %

3.2 km/h aus 116

8.0 km/h aus W

12.9 C

15.1 C

15.1 C

15.1 C

0 W/m

0.00 mm

04:10

14.9 C

1009.6 hpa

86 %

6.4 km/h aus 115

20.9 km/h aus W

12.6 C

14.9 C

14.9 C

14.9 C

0 W/m

0.00 mm

04:15

14.8 C

1009.7 hpa

86 %

3.2 km/h aus 115

9.7 km/h aus WSW

12.5 C

14.8 C

14.8 C

14.8 C

0 W/m

0.00 mm

04:20

14.8 C

1009.7 hpa

86 %

4.8 km/h aus 117

17.7 km/h aus WSW

12.5 C

14.8 C

14.8 C

14.8 C

0 W/m

0.00 mm

04:25

14.8 C

1009.7 hpa

85 %

4.8 km/h aus 117

17.7 km/h aus W

12.3 C

14.8 C

14.8 C

14.8 C

0 W/m

0.00 mm

04:30

14.8 C

1009.7 hpa

85 %

1.6 km/h aus 117

9.7 km/h aus WSW

12.3 C

14.8 C

14.8 C

14.8 C

0 W/m

0.00 mm

04:35

14.8 C

1009.7 hpa

85 %

4.8 km/h aus 116

11.3 km/h aus WSW

12.3 C

14.8 C

14.8 C

14.8 C

0 W/m

0.00 mm

04:40

14.9 C

1009.7 hpa

84 %

1.6 km/h aus 116

9.7 km/h aus SW

12.2 C

14.8 C

14.9 C

14.8 C

0 W/m

0.00 mm

04:45

14.9 C

1009.8 hpa

84 %

6.4 km/h aus 117

11.3 km/h aus SW

12.2 C

14.8 C

14.9 C

14.8 C

0 W/m

0.00 mm

04:50

14.9 C

1009.8 hpa

83 %

8.0 km/h aus 117

19.3 km/h aus SW

12.0 C

14.7 C

14.8 C

14.8 C

0 W/m

0.00 mm

04:55

14.9 C

1009.8 hpa

83 %

6.4 km/h aus 117

12.9 km/h aus SW

12.1 C

14.9 C

14.9 C

14.9 C

0 W/m

0.00 mm

05:00

14.9 C

1009.9 hpa

83 %

6.4 km/h aus 113

11.3 km/h aus SW

12.1 C

14.9 C

14.9 C

14.9 C

0 W/m

0.00 mm

05:05

15.0 C

1009.9 hpa

83 %

4.8 km/h aus 116

14.5 km/h aus WSW

12.1 C

14.9 C

15.0 C

14.9 C

0 W/m

0.00 mm

05:10

15.0 C

1009.9 hpa

82 %

6.4 km/h aus 116

17.7 km/h aus SSW

12.0 C

14.9 C

15.0 C

14.9 C

0 W/m

0.00 mm

05:15

15.0 C

1009.9 hpa

82 %

3.2 km/h aus 116

9.7 km/h aus SSW

12.0 C

14.9 C

15.0 C

14.9 C

0 W/m

0.00 mm

05:20

15.0 C

1009.9 hpa

82 %

3.2 km/h aus 116

11.3 km/h aus SSW

12.0 C

14.9 C

15.0 C

14.9 C

0 W/m

0.00 mm

05:25

15.0 C

1009.9 hpa

82 %

3.2 km/h aus 113

9.7 km/h aus SW

12.0 C

14.9 C

15.0 C

14.9 C

0 W/m

0.00 mm

05:30

15.0 C

1010.1 hpa

82 %

1.6 km/h aus 116

6.4 km/h aus SSW

12.0 C

14.9 C

15.0 C

14.9 C

0 W/m

0.00 mm

05:35

15.1 C

1010.1 hpa

82 %

4.8 km/h aus 116

12.9 km/h aus SW

12.0 C

15.0 C

15.1 C

15.0 C

0 W/m

0.00 mm

05:40

15.1 C

1010.1 hpa

82 %

4.8 km/h aus 118

14.5 km/h aus SSW

12.0 C

15.0 C

15.1 C

15.0 C

0 W/m

0.00 mm

05:45

15.1 C

1010.1 hpa

82 %

4.8 km/h aus 116

12.9 km/h aus SSW

12.0 C

15.0 C

15.1 C

15.0 C

0 W/m

0.00 mm

05:50

15.1 C

1010.1 hpa

82 %

4.8 km/h aus 114

14.5 km/h aus SSW

12.0 C

15.0 C

15.1 C

15.0 C

0 W/m

0.00 mm

05:55

15.1 C

1010.1 hpa

82 %

4.8 km/h aus 117

11.3 km/h aus SW

12.0 C

15.0 C

15.1 C

15.0 C

0 W/m

0.00 mm

06:00

15.1 C

1010.1 hpa

83 %

6.4 km/h aus 116

14.5 km/h aus SW

12.2 C

15.0 C

15.1 C

15.0 C

0 W/m

0.00 mm

06:05

15.0 C

1010.1 hpa

83 %

6.4 km/h aus 116

11.3 km/h aus SSW

12.1 C

14.9 C

15.0 C

14.9 C

0 W/m

0.00 mm

06:10

15.0 C

1010.1 hpa

83 %

9.7 km/h aus 115

17.7 km/h aus SW

12.1 C

14.6 C

14.7 C

14.9 C

0 W/m

0.00 mm

06:15

14.9 C

1010.1 hpa

83 %

6.4 km/h aus 114

14.5 km/h aus SW

12.1 C

14.9 C

14.9 C

14.9 C

0 W/m

0.00 mm

06:20

14.9 C

1010.1 hpa

83 %

6.4 km/h aus 116

19.3 km/h aus SSW

12.1 C

14.9 C

14.9 C

14.9 C

0 W/m

0.00 mm

06:25

14.9 C

1010.1 hpa

83 %

9.7 km/h aus 116

19.3 km/h aus SW

12.1 C

14.6 C

14.6 C

14.9 C

0 W/m

0.00 mm

06:30

14.9 C

1010.1 hpa

83 %

9.7 km/h aus 117

19.3 km/h aus SSW

12.0 C

14.5 C

14.6 C

14.8 C

0 W/m

0.00 mm

06:35

14.9 C

1010.1 hpa

83 %

8.0 km/h aus 115

20.9 km/h aus SSW

12.0 C

14.7 C

14.8 C

14.8 C

0 W/m

0.00 mm

06:40

14.8 C

1010.1 hpa

84 %

4.8 km/h aus 115

11.3 km/h aus SSW

12.2 C

14.8 C

14.8 C

14.8 C

0 W/m

0.00 mm

06:45

14.8 C

1010.1 hpa

84 %

9.7 km/h aus 117

22.5 km/h aus S

12.2 C

14.4 C

14.4 C

14.8 C

0 W/m

0.00 mm

06:50

14.8 C

1010.1 hpa

84 %

4.8 km/h aus 117

17.7 km/h aus WSW

12.1 C

14.7 C

14.8 C

14.7 C

0 W/m

0.00 mm

06:55

14.8 C

1010.1 hpa

84 %

3.2 km/h aus 116

8.0 km/h aus WSW

12.1 C

14.7 C

14.8 C

14.7 C

0 W/m

0.00 mm

07:00

14.8 C

1010.1 hpa

84 %

4.8 km/h aus 114

11.3 km/h aus SSW

12.1 C

14.7 C

14.8 C

14.7 C

1 W/m

0.00 mm

07:05

14.7 C

1010.1 hpa

84 %

4.8 km/h aus 116

20.9 km/h aus WSW

12.0 C

14.7 C

14.7 C

14.7 C

5 W/m

0.00 mm

07:10

14.7 C

1010.1 hpa

84 %

4.8 km/h aus 116

11.3 km/h aus SSW

12.0 C

14.7 C

14.7 C

14.7 C

6 W/m

0.00 mm

07:15

14.7 C

1010.2 hpa

85 %

4.8 km/h aus 117

9.7 km/h aus SW

12.2 C

14.6 C

14.7 C

14.6 C

9 W/m

0.00 mm

07:20

14.7 C

1010.2 hpa

85 %

4.8 km/h aus 117

14.5 km/h aus SW

12.2 C

14.6 C

14.7 C

14.6 C

17 W/m

0.00 mm

07:25

14.7 C

1010.2 hpa

85 %

3.2 km/h aus 114

11.3 km/h aus SW

12.2 C

14.6 C

14.7 C

14.6 C

24 W/m

0.00 mm

07:30

14.6 C

1010.1 hpa

85 %

9.7 km/h aus 116

22.5 km/h aus SSW

12.1 C

14.2 C

14.2 C

14.6 C

27 W/m

0.00 mm

07:35

14.6 C

1010.1 hpa

85 %

11.3 km/h aus 117

20.9 km/h aus SW

12.1 C

13.9 C

14.0 C

14.6 C

27 W/m

0.00 mm

07:40

14.6 C

1010.1 hpa

85 %

9.7 km/h aus 117

20.9 km/h aus SSW

12.1 C

14.2 C

14.2 C

14.6 C

40 W/m

0.00 mm

07:45

14.6 C

1010.1 hpa

85 %

4.8 km/h aus 118

16.1 km/h aus SSW

12.1 C

14.6 C

14.6 C

14.6 C

56 W/m

0.00 mm

07:50

14.6 C

1010.1 hpa

85 %

8.0 km/h aus 113

25.7 km/h aus SW

12.1 C

14.4 C

14.4 C

14.6 C

60 W/m

0.00 mm

07:55

14.6 C

1010.1 hpa

85 %

8.0 km/h aus 116

19.3 km/h aus SSW

12.1 C

14.4 C

14.4 C

14.6 C

60 W/m

0.00 mm

08:00

14.7 C

1010.2 hpa

85 %

4.8 km/h aus 117

12.9 km/h aus WSW

12.2 C

14.6 C

14.7 C

14.6 C

52 W/m

0.00 mm

08:05

14.7 C

1010.2 hpa

85 %

6.4 km/h aus 117

22.5 km/h aus SSW

12.2 C

14.6 C

14.7 C

14.6 C

75 W/m

0.00 mm

08:10

14.7 C

1010.2 hpa

85 %

11.3 km/h aus 116

19.3 km/h aus SSW

12.2 C

14.0 C

14.1 C

14.6 C

71 W/m

0.00 mm

08:15

14.7 C

1010.2 hpa

85 %

9.7 km/h aus 113

19.3 km/h aus SSW

12.2 C

14.3 C

14.3 C

14.7 C

51 W/m

0.00 mm

08:20

14.7 C

1010.2 hpa

85 %

6.4 km/h aus 117

19.3 km/h aus SSW

12.2 C

14.7 C

14.7 C

14.7 C

40 W/m

0.00 mm

08:25

14.7 C

1010.2 hpa

85 %

4.8 km/h aus 117

20.9 km/h aus NW

12.2 C

14.7 C

14.7 C

14.7 C

41 W/m

0.00 mm

08:30

14.7 C

1010.5 hpa

85 %

8.0 km/h aus 117

24.1 km/h aus SW

12.2 C

14.6 C

14.6 C

14.7 C

49 W/m

0.00 mm

08:35

14.7 C

1010.5 hpa

85 %

8.0 km/h aus 116

20.9 km/h aus SSW

12.2 C

14.6 C

14.6 C

14.7 C

63 W/m

0.00 mm

08:40

14.7 C

1010.5 hpa

85 %

9.7 km/h aus 115

20.9 km/h aus SW

12.2 C

14.3 C

14.3 C

14.7 C

78 W/m

0.00 mm

08:45

14.7 C

1010.6 hpa

85 %

6.4 km/h aus 116

19.3 km/h aus SW

12.2 C

14.7 C

14.7 C

14.7 C

99 W/m

0.00 mm

08:50

14.8 C

1010.6 hpa

85 %

9.7 km/h aus 118

24.1 km/h aus SW

12.3 C

14.4 C

14.4 C

14.8 C

102 W/m

0.00 mm

08:55

14.8 C

1010.6 hpa

86 %

8.0 km/h aus 116

19.3 km/h aus WSW

12.5 C

14.6 C

14.6 C

14.8 C

156 W/m

0.00 mm

09:00

14.9 C

1010.7 hpa

86 %

9.7 km/h aus 115

20.9 km/h aus SW

12.6 C

14.6 C

14.6 C

14.9 C

192 W/m

0.00 mm

09:05

15.0 C

1010.7 hpa

86 %

11.3 km/h aus 115

24.1 km/h aus SSW

12.7 C

14.4 C

14.4 C

15.0 C

145 W/m

0.00 mm

09:10

15.1 C

1010.7 hpa

86 %

4.8 km/h aus 117

14.5 km/h aus SSW

12.7 C

15.1 C

15.1 C

15.1 C

105 W/m

0.00 mm

09:15

15.1 C

1010.7 hpa

85 %

8.0 km/h aus 117

22.5 km/h aus SSW

12.6 C

14.9 C

14.9 C

15.1 C

87 W/m

0.00 mm

09:20

15.1 C

1010.7 hpa

86 %

3.2 km/h aus 117

9.7 km/h aus SW

12.8 C

15.2 C

15.1 C

15.2 C

100 W/m

0.00 mm

09:25

15.1 C

1010.7 hpa

86 %

6.4 km/h aus 114

24.1 km/h aus WSW

12.8 C

15.2 C

15.1 C

15.2 C

92 W/m

0.00 mm

09:30

15.1 C

1010.8 hpa

86 %

6.4 km/h aus 115

24.1 km/h aus SW

12.7 C

15.1 C

15.1 C

15.1 C

121 W/m

0.00 mm

09:35

15.1 C

1010.8 hpa

86 %

9.7 km/h aus 117

22.5 km/h aus SSW

12.7 C

14.7 C

14.7 C

15.1 C

136 W/m

0.00 mm

09:40

15.0 C

1010.8 hpa

87 %

6.4 km/h aus 117

17.7 km/h aus WSW

12.9 C

15.1 C

15.0 C

15.1 C

124 W/m

0.00 mm

09:45

15.0 C

1011.0 hpa

87 %

6.4 km/h aus 116

20.9 km/h aus SSW

12.9 C

15.1 C

15.0 C

15.1 C

131 W/m

0.00 mm

09:50

14.9 C

1011.0 hpa

89 %

4.8 km/h aus 114

14.5 km/h aus SSW

13.1 C

15.1 C

14.9 C

15.1 C

269 W/m

0.00 mm

09:55

14.9 C

1011.0 hpa

88 %

8.0 km/h aus 118

22.5 km/h aus SSW

13.0 C

14.9 C

14.8 C

15.0 C

194 W/m

0.00 mm

10:00

14.9 C

1010.9 hpa

89 %

8.0 km/h aus 116

14.5 km/h aus SW

13.1 C

14.9 C

14.8 C

15.1 C

173 W/m

0.00 mm

10:05

15.0 C

1010.9 hpa

89 %

6.4 km/h aus 117

17.7 km/h aus SW

13.2 C

15.1 C

15.0 C

15.1 C

159 W/m

0.00 mm

10:10

15.2 C

1010.9 hpa

89 %

4.8 km/h aus 116

16.1 km/h aus WSW

13.4 C

15.3 C

15.2 C

15.3 C

212 W/m

0.00 mm

10:15

15.4 C

1011.1 hpa

89 %

4.8 km/h aus 114

8.0 km/h aus SW

13.6 C

15.5 C

15.4 C

15.5 C

226 W/m

0.00 mm

10:20

15.5 C

1011.1 hpa

88 %

4.8 km/h aus 117

12.9 km/h aus WSW

13.5 C

15.6 C

15.5 C

15.6 C

162 W/m

0.00 mm

10:25

15.4 C

1011.1 hpa

88 %

6.4 km/h aus 116

19.3 km/h aus WSW

13.4 C

15.5 C

15.4 C

15.5 C

205 W/m

0.00 mm

10:30

15.4 C

1011.2 hpa

88 %

9.7 km/h aus 115

19.3 km/h aus SSW

13.4 C

15.2 C

15.1 C

15.5 C

200 W/m

0.00 mm

10:35

15.3 C

1011.2 hpa

88 %

9.7 km/h aus 115

24.1 km/h aus SW

13.3 C

15.1 C

15.0 C

15.4 C

138 W/m

0.00 mm

10:40

15.4 C

1011.2 hpa

88 %

8.0 km/h aus 115

19.3 km/h aus SW

13.4 C

15.4 C

15.3 C

15.5 C

196 W/m

0.00 mm

10:45

15.4 C

1011.2 hpa

88 %

6.4 km/h aus 117

17.7 km/h aus W

13.5 C

15.6 C

15.4 C

15.6 C

219 W/m

0.00 mm

10:50

15.6 C

1011.2 hpa

88 %

4.8 km/h aus 117

9.7 km/h aus SSW

13.6 C

15.7 C

15.6 C

15.7 C

176 W/m

0.00 mm

10:55

15.6 C

1011.2 hpa

87 %

4.8 km/h aus 117

12.9 km/h aus WSW

13.5 C

15.7 C

15.6 C

15.7 C

198 W/m

0.00 mm

11:00

15.7 C

1011.2 hpa

88 %

6.4 km/h aus 115

20.9 km/h aus SW

13.7 C

15.8 C

15.7 C

15.8 C

179 W/m

0.00 mm

11:05

15.7 C

1011.2 hpa

87 %

8.0 km/h aus 116

17.7 km/h aus SSW

13.6 C

15.8 C

15.7 C

15.8 C

235 W/m

0.00 mm

11:10

15.9 C

1011.2 hpa

87 %

4.8 km/h aus 117

11.3 km/h aus WSW

13.8 C

16.1 C

15.9 C

16.1 C

267 W/m

0.00 mm

11:15

16.1 C

1011.2 hpa

87 %

4.8 km/h aus 117

16.1 km/h aus SW

13.9 C

16.2 C

16.1 C

16.2 C

147 W/m

0.00 mm

11:20

16.1 C

1011.2 hpa

87 %

4.8 km/h aus 116

11.3 km/h aus WSW

13.9 C

16.2 C

16.1 C

16.2 C

167 W/m

0.00 mm

11:25

16.2 C

1011.2 hpa

86 %

3.2 km/h aus 114

8.0 km/h aus SSW

13.9 C

16.4 C

16.2 C

16.4 C

282 W/m

0.00 mm

11:30

16.4 C

1011.2 hpa

86 %

4.8 km/h aus 117

11.3 km/h aus SW

14.0 C

16.6 C

16.4 C

16.6 C

294 W/m

0.00 mm

11:35

16.6 C

1011.2 hpa

85 %

4.8 km/h aus 116

16.1 km/h aus S

14.1 C

16.8 C

16.6 C

16.8 C

362 W/m

0.00 mm

11:40

17.0 C

1011.2 hpa

84 %

9.7 km/h aus 117

20.9 km/h aus SSW

14.3 C

17.2 C

17.0 C

17.2 C

498 W/m

0.00 mm

11:45

17.3 C

1011.1 hpa

82 %

6.4 km/h aus 114

9.7 km/h aus WSW

14.2 C

17.6 C

17.3 C

17.6 C

326 W/m

0.00 mm

11:50

17.2 C

1011.1 hpa

82 %

3.2 km/h aus 115

9.7 km/h aus W

14.1 C

17.4 C

17.2 C

17.4 C

103 W/m

0.00 mm

11:55

17.1 C

1011.1 hpa

82 %

6.4 km/h aus 116

22.5 km/h aus W

14.0 C

17.3 C

17.1 C

17.3 C

70 W/m

0.00 mm

12:00

17.1 C

1011.4 hpa

82 %

8.0 km/h aus 118

17.7 km/h aus S

14.0 C

17.2 C

17.1 C

17.2 C

114 W/m

0.00 mm

12:05

17.0 C

1011.4 hpa

82 %

3.2 km/h aus 117

8.0 km/h aus W

13.9 C

17.2 C

17.0 C

17.2 C

122 W/m

0.00 mm

12:10

16.9 C

1011.4 hpa

83 %

3.2 km/h aus 114

9.7 km/h aus W

14.0 C

17.1 C

16.9 C

17.1 C

68 W/m

0.00 mm

12:15

16.9 C

1011.6 hpa

83 %

3.2 km/h aus 117

14.5 km/h aus SW

14.0 C

17.1 C

16.9 C

17.1 C

83 W/m

0.00 mm

12:20

16.8 C

1011.6 hpa

83 %

6.4 km/h aus 117

19.3 km/h aus WSW

13.9 C

16.9 C

16.8 C

16.9 C

166 W/m

0.00 mm

12:25

16.7 C

1011.6 hpa

82 %

9.7 km/h aus 115

24.1 km/h aus WSW

13.6 C

16.9 C

16.7 C

16.9 C

184 W/m

0.00 mm

12:30

16.8 C

1011.5 hpa

81 %

8.0 km/h aus 116

17.7 km/h aus SW

13.5 C

16.9 C

16.8 C

16.9 C

230 W/m

0.00 mm

12:35

17.0 C

1011.5 hpa

81 %

6.4 km/h aus 114

20.9 km/h aus WSW

13.7 C

17.2 C

17.0 C

17.2 C

262 W/m

0.00 mm

12:40

17.4 C

1011.5 hpa

81 %

6.4 km/h aus 116

17.7 km/h aus WSW

14.1 C

17.6 C

17.4 C

17.6 C

401 W/m

0.00 mm

12:45

17.9 C

1011.3 hpa

77 %

8.0 km/h aus 117

19.3 km/h aus W

13.8 C

18.1 C

17.9 C

18.1 C

442 W/m

0.00 mm

12:50

17.8 C

1011.3 hpa

77 %

9.7 km/h aus 116

20.9 km/h aus SW

13.7 C

18.0 C

17.8 C

18.0 C

326 W/m

0.00 mm

12:55

17.7 C

1011.3 hpa

78 %

8.0 km/h aus 113

19.3 km/h aus SW

13.8 C

17.9 C

17.7 C

17.9 C

255 W/m

0.00 mm

13:00

17.8 C

1011.3 hpa

78 %

6.4 km/h aus 115

19.3 km/h aus SW

13.9 C

17.9 C

17.8 C

17.9 C

270 W/m

0.00 mm

13:05

17.8 C

1011.3 hpa

78 %

11.3 km/h aus 116

25.7 km/h aus SW

13.9 C

18.1 C

17.8 C

18.1 C

305 W/m

0.00 mm

13:10

17.8 C

1011.3 hpa

78 %

6.4 km/h aus 117

17.7 km/h aus SW

13.9 C

18.1 C

17.8 C

18.1 C

285 W/m

0.00 mm

13:15

17.8 C

1011.2 hpa

78 %

8.0 km/h aus 116

19.3 km/h aus SW

13.9 C

17.9 C

17.8 C

17.9 C

271 W/m

0.00 mm

13:20

17.8 C

1011.2 hpa

78 %

4.8 km/h aus 115

16.1 km/h aus SSW

13.9 C

18.1 C

17.8 C

18.1 C

246 W/m

0.00 mm

13:25

17.8 C

1011.2 hpa

79 %

11.3 km/h aus 117

24.1 km/h aus SSW

14.1 C

18.0 C

17.8 C

18.0 C

203 W/m

0.00 mm

13:30

17.7 C

1011.3 hpa

80 %

8.0 km/h aus 116

20.9 km/h aus S

14.2 C

18.0 C

17.7 C

18.0 C

183 W/m

0.00 mm

13:35

17.7 C

1011.3 hpa

81 %

9.7 km/h aus 117

19.3 km/h aus SSW

14.4 C

17.9 C

17.7 C

17.9 C

210 W/m

0.00 mm

13:40

17.7 C

1011.3 hpa

81 %

9.7 km/h aus 114

19.3 km/h aus S

14.4 C

17.9 C

17.7 C

17.9 C

176 W/m

0.00 mm

13:45

17.6 C

1011.2 hpa

81 %

9.7 km/h aus 116

22.5 km/h aus SW

14.3 C

17.8 C

17.6 C

17.8 C

192 W/m

0.00 mm

13:50

17.6 C

1011.2 hpa

81 %

8.0 km/h aus 116

19.3 km/h aus SW

14.3 C

17.8 C

17.6 C

17.8 C

177 W/m

0.00 mm

13:55

17.4 C

1011.2 hpa

81 %

11.3 km/h aus 116

22.5 km/h aus SW

14.1 C

17.6 C

17.4 C

17.7 C

204 W/m

0.00 mm

14:00

17.5 C

1011.3 hpa

82 %

11.3 km/h aus 116

24.1 km/h aus SSW

14.4 C

17.8 C

17.5 C

17.8 C

182 W/m

0.00 mm

14:05

17.5 C

1011.3 hpa

82 %

6.4 km/h aus 113

17.7 km/h aus SW

14.4 C

17.8 C

17.5 C

17.8 C

193 W/m

0.00 mm

14:10

17.6 C

1011.3 hpa

82 %

8.0 km/h aus 117

22.5 km/h aus SW

14.4 C

17.8 C

17.6 C

17.8 C

216 W/m

0.00 mm

14:15

17.5 C

1011.3 hpa

82 %

11.3 km/h aus 115

24.1 km/h aus SSW

14.4 C

17.8 C

17.5 C

17.8 C

231 W/m

0.00 mm

14:20

17.7 C

1011.3 hpa

82 %

6.4 km/h aus 116

17.7 km/h aus SW

14.6 C

17.9 C

17.7 C

17.9 C

259 W/m

0.00 mm

14:25

17.8 C

1011.3 hpa

81 %

9.7 km/h aus 114

22.5 km/h aus WSW

14.5 C

18.1 C

17.8 C

18.1 C

245 W/m

0.00 mm

14:30

17.7 C

1011.2 hpa

82 %

11.3 km/h aus 115

22.5 km/h aus WSW

14.6 C

18.0 C

17.7 C

18.0 C

254 W/m

0.00 mm

14:35

17.9 C

1011.2 hpa

80 %

11.3 km/h aus 116

20.9 km/h aus SSW

14.4 C

18.2 C

17.9 C

18.2 C

309 W/m

0.00 mm

14:40

18.0 C

1011.2 hpa

80 %

9.7 km/h aus 117

20.9 km/h aus SSW

14.5 C

18.3 C

18.0 C

18.3 C

289 W/m

0.00 mm

14:45

17.9 C

1011.2 hpa

80 %

8.0 km/h aus 115

22.5 km/h aus SSW

14.4 C

18.2 C

17.9 C

18.2 C

261 W/m

0.00 mm

14:50

17.9 C

1011.2 hpa

79 %

11.3 km/h aus 114

20.9 km/h aus SW

14.2 C

18.2 C

17.9 C

18.2 C

264 W/m

0.00 mm

14:55

17.9 C

1011.2 hpa

79 %

8.0 km/h aus 117

20.9 km/h aus SW

14.2 C

18.2 C

17.9 C

18.2 C

201 W/m

0.00 mm

15:00

17.9 C

1011.2 hpa

80 %

8.0 km/h aus 116

19.3 km/h aus SW

14.4 C

18.3 C

17.9 C

18.3 C

198 W/m

0.00 mm

15:05

18.0 C

1011.2 hpa

80 %

8.0 km/h aus 117

19.3 km/h aus W

14.5 C

18.3 C

18.0 C

18.3 C

263 W/m

0.00 mm

15:10

18.4 C

1011.2 hpa

79 %

4.8 km/h aus 114

9.7 km/h aus WSW

14.7 C

18.8 C

18.4 C

18.8 C

370 W/m

0.00 mm

15:15

18.9 C

1011.1 hpa

78 %

6.4 km/h aus 117

14.5 km/h aus SW

15.0 C

19.3 C

18.9 C

19.3 C

589 W/m

0.00 mm

15:20

18.9 C

1011.1 hpa

78 %

8.0 km/h aus 116

17.7 km/h aus SSW

15.0 C

19.3 C

18.9 C

19.3 C

227 W/m

0.00 mm

15:25

18.8 C

1011.1 hpa

78 %

8.0 km/h aus 116

19.3 km/h aus SW

14.9 C

19.2 C

18.8 C

19.2 C

104 W/m

0.00 mm

15:30

18.7 C

1011.1 hpa

77 %

9.7 km/h aus 114

20.9 km/h aus W

14.6 C

19.0 C

18.7 C

19.0 C

63 W/m

0.00 mm

15:35

18.6 C

1011.1 hpa

76 %

8.0 km/h aus 114

22.5 km/h aus WSW

14.3 C

18.9 C

18.6 C

18.9 C

65 W/m

0.00 mm

15:40

18.5 C

1011.1 hpa

76 %

14.5 km/h aus 117

29.0 km/h aus W

14.2 C

17.9 C

17.7 C

18.7 C

64 W/m

0.00 mm

15:45

18.3 C

1011.1 hpa

78 %

11.3 km/h aus 116

24.1 km/h aus W

14.4 C

18.6 C

18.3 C

18.6 C

71 W/m

0.00 mm

15:50

18.1 C

1011.1 hpa

78 %

6.4 km/h aus 117

17.7 km/h aus WSW

14.2 C

18.3 C

18.1 C

18.3 C

120 W/m

0.00 mm

15:55

17.8 C

1011.1 hpa

79 %

4.8 km/h aus 113

9.7 km/h aus W

14.1 C

18.1 C

17.8 C

18.1 C

145 W/m

0.00 mm

16:00

17.8 C

1011.1 hpa

81 %

3.2 km/h aus 117

9.7 km/h aus WSW

14.5 C

18.1 C

17.8 C

18.1 C

233 W/m

0.00 mm

16:05

18.3 C

1011.1 hpa

79 %

6.4 km/h aus 116

16.1 km/h aus WNW

14.6 C

18.7 C

18.3 C

18.7 C

357 W/m

0.00 mm

16:10

18.6 C

1011.1 hpa

77 %

4.8 km/h aus 117

12.9 km/h aus W

14.4 C

18.8 C

18.6 C

18.8 C

330 W/m

0.00 mm

16:15

18.7 C

1011.1 hpa

77 %

4.8 km/h aus 116

16.1 km/h aus W

14.6 C

19.0 C

18.7 C

19.0 C

235 W/m

0.00 mm

16:20

18.6 C

1011.1 hpa

76 %

6.4 km/h aus 115

20.9 km/h aus WNW

14.3 C

18.9 C

18.6 C

18.9 C

114 W/m

0.00 mm

16:25

18.6 C

1011.1 hpa

75 %

12.9 km/h aus 116

24.1 km/h aus NW

14.0 C

18.4 C

18.2 C

18.8 C

55 W/m

0.00 mm

16:30

18.1 C

1011.2 hpa

76 %

11.3 km/h aus 113

27.4 km/h aus NW

13.8 C

18.3 C

18.1 C

18.3 C

75 W/m

0.00 mm

16:35

17.8 C

1011.2 hpa

77 %

9.7 km/h aus 115

25.7 km/h aus W

13.7 C

17.9 C

17.8 C

17.9 C

88 W/m

0.00 mm

16:40

17.5 C

1011.2 hpa

77 %

4.8 km/h aus 112

17.7 km/h aus W

13.4 C

17.6 C

17.5 C

17.6 C

72 W/m

0.00 mm

16:45

17.3 C

1011.2 hpa

78 %

6.4 km/h aus 115

20.9 km/h aus WNW

13.4 C

17.4 C

17.3 C

17.4 C

63 W/m

0.00 mm

16:50

17.1 C

1011.2 hpa

78 %

4.8 km/h aus 117

19.3 km/h aus WNW

13.2 C

17.2 C

17.1 C

17.2 C

63 W/m

0.00 mm

16:55

17.0 C

1011.2 hpa

78 %

6.4 km/h aus 117

19.3 km/h aus WNW

13.1 C

17.1 C

17.0 C

17.1 C

69 W/m

0.00 mm

17:00

16.9 C

1011.2 hpa

78 %

4.8 km/h aus 114

14.5 km/h aus WNW

13.1 C

17.0 C

16.9 C

17.0 C

89 W/m

0.00 mm

17:05

16.9 C

1011.2 hpa

78 %

3.2 km/h aus 114

9.7 km/h aus W

13.0 C

16.9 C

16.9 C

16.9 C

115 W/m

0.00 mm

17:10

16.9 C

1011.2 hpa

79 %

3.2 km/h aus 117

8.0 km/h aus WNW

13.3 C

17.1 C

16.9 C

17.1 C

110 W/m

0.00 mm

17:15

17.0 C

1011.2 hpa

79 %

1.6 km/h aus 116

8.0 km/h aus WNW

13.3 C

17.1 C

17.0 C

17.1 C

111 W/m

0.00 mm

17:20

17.1 C

1011.2 hpa

79 %

1.6 km/h aus 118

6.4 km/h aus WNW

13.4 C

17.2 C

17.1 C

17.2 C

113 W/m

0.00 mm

17:25

17.2 C

1011.2 hpa

80 %

1.6 km/h aus 115

6.4 km/h aus W

13.7 C

17.3 C

17.2 C

17.3 C

111 W/m

0.00 mm

17:30

17.2 C

1011.2 hpa

80 %

4.8 km/h aus 116

9.7 km/h aus W

13.7 C

17.4 C

17.2 C

17.4 C

110 W/m

0.00 mm

17:35

17.3 C

1011.2 hpa

80 %

3.2 km/h aus 117

6.4 km/h aus WNW

13.8 C

17.4 C

17.3 C

17.4 C

99 W/m

0.00 mm

17:40

17.3 C

1011.2 hpa

80 %

3.2 km/h aus 117

9.7 km/h aus WNW

13.8 C

17.5 C

17.3 C

17.5 C

60 W/m

0.00 mm

17:45

17.3 C

1011.3 hpa

80 %

3.2 km/h aus 117

11.3 km/h aus WNW

13.8 C

17.5 C

17.3 C

17.5 C

54 W/m

0.00 mm

17:50

17.3 C

1011.3 hpa

81 %

1.6 km/h aus 114

6.4 km/h aus WNW

14.0 C

17.6 C

17.3 C

17.6 C

38 W/m

0.00 mm

17:55

17.3 C

1011.3 hpa

81 %

3.2 km/h aus 117

6.4 km/h aus WNW

14.0 C

17.6 C

17.3 C

17.6 C

41 W/m

0.00 mm

18:00

17.3 C

1011.3 hpa

81 %

1.6 km/h aus 117

6.4 km/h aus WNW

14.0 C

17.6 C

17.3 C

17.6 C

35 W/m

0.00 mm

18:05

17.3 C

1011.3 hpa

81 %

1.6 km/h aus 117

4.8 km/h aus WNW

14.0 C

17.6 C

17.3 C

17.6 C

35 W/m

0.00 mm

18:10

17.3 C

1011.3 hpa

81 %

1.6 km/h aus 115

4.8 km/h aus WNW

14.0 C

17.6 C

17.3 C

17.6 C

33 W/m

0.00 mm

18:15

17.3 C

1011.5 hpa

81 %

3.2 km/h aus 114

6.4 km/h aus W

14.0 C

17.6 C

17.3 C

17.6 C

34 W/m

0.00 mm

18:20

17.3 C

1011.5 hpa

81 %

1.6 km/h aus 117

6.4 km/h aus W

14.0 C

17.6 C

17.3 C

17.6 C

40 W/m

0.00 mm

18:25

17.3 C

1011.5 hpa

82 %

1.6 km/h aus 118

6.4 km/h aus W

14.2 C

17.6 C

17.3 C

17.6 C

43 W/m

0.00 mm

18:30

17.3 C

1011.4 hpa

81 %

1.6 km/h aus 117

6.4 km/h aus W

14.0 C

17.6 C

17.3 C

17.6 C

42 W/m

0.00 mm

18:35

17.3 C

1011.4 hpa

82 %

3.2 km/h aus 114

6.4 km/h aus W

14.2 C

17.5 C

17.3 C

17.5 C

37 W/m

0.00 mm

18:40

17.3 C

1011.4 hpa

82 %

0.0 km/h aus 115

3.2 km/h aus W

14.2 C

17.5 C

17.3 C

17.5 C

29 W/m

0.00 mm

18:45

17.3 C

1011.4 hpa

82 %

0.0 km/h aus 117

0.0 km/h aus ---

14.2 C

17.5 C

17.3 C

17.5 C

23 W/m

0.00 mm

18:50

17.3 C

1011.4 hpa

82 %

0.0 km/h aus 116

0.0 km/h aus ---

14.2 C

17.5 C

17.3 C

17.5 C

18 W/m

0.00 mm

18:55

17.3 C

1011.4 hpa

82 %

0.0 km/h aus 115

0.0 km/h aus ---

14.2 C

17.5 C

17.3 C

17.5 C

14 W/m

0.00 mm

19:00

17.2 C

1011.7 hpa

81 %

1.6 km/h aus 113

8.0 km/h aus SW

13.9 C

17.4 C

17.2 C

17.4 C

12 W/m

0.00 mm

19:05

17.2 C

1011.7 hpa

81 %

4.8 km/h aus 117

11.3 km/h aus SW

13.9 C

17.3 C

17.2 C

17.3 C

10 W/m

0.00 mm

19:10

17.2 C

1011.7 hpa

81 %

1.6 km/h aus 116

4.8 km/h aus WSW

13.9 C

17.3 C

17.2 C

17.3 C

9 W/m

0.00 mm

19:15

17.1 C

1011.7 hpa

81 %

1.6 km/h aus 117

6.4 km/h aus WSW

13.8 C

17.3 C

17.1 C

17.3 C

7 W/m

0.00 mm

19:20

17.1 C

1011.7 hpa

81 %

0.0 km/h aus 115

3.2 km/h aus SW

13.8 C

17.3 C

17.1 C

17.3 C

5 W/m

0.00 mm

19:25

17.1 C

1011.7 hpa

81 %

3.2 km/h aus 115

8.0 km/h aus SW

13.8 C

17.2 C

17.1 C

17.2 C

1 W/m

0.00 mm

19:30

17.0 C

1011.7 hpa

81 %

3.2 km/h aus 118

9.7 km/h aus SW

13.7 C

17.2 C

17.0 C

17.2 C

0 W/m

0.00 mm

19:35

17.0 C

1011.7 hpa

81 %

1.6 km/h aus 116

6.4 km/h aus SW

13.7 C

17.2 C

17.0 C

17.2 C

0 W/m

0.00 mm

19:40

16.9 C

1011.7 hpa

81 %

1.6 km/h aus 117

3.2 km/h aus W

13.7 C

17.1 C

16.9 C

17.1 C

0 W/m

0.00 mm

19:45

16.9 C

1011.7 hpa

81 %

1.6 km/h aus 115

6.4 km/h aus W

13.7 C

17.1 C

16.9 C

17.1 C

0 W/m

0.00 mm

19:50

16.9 C

1011.7 hpa

81 %

3.2 km/h aus 115

8.0 km/h aus W

13.7 C

17.1 C

16.9 C

17.1 C

0 W/m

0.00 mm

19:55

16.9 C

1011.7 hpa

81 %

3.2 km/h aus 116

6.4 km/h aus W

13.7 C

17.1 C

16.9 C

17.1 C

0 W/m

0.00 mm

20:00

16.9 C

1011.7 hpa

81 %

1.6 km/h aus 117

4.8 km/h aus W

13.7 C

17.1 C

16.9 C

17.1 C

0 W/m

0.00 mm

20:05

16.9 C

1011.7 hpa

81 %

0.0 km/h aus 117

4.8 km/h aus W

13.7 C

17.1 C

16.9 C

17.1 C

0 W/m

0.00 mm

20:10

16.9 C

1011.7 hpa

81 %

0.0 km/h aus 114

4.8 km/h aus W

13.7 C

17.1 C

16.9 C

17.1 C

0 W/m

0.00 mm

20:15

16.9 C

1011.8 hpa

81 %

0.0 km/h aus 117

6.4 km/h aus W

13.7 C

17.1 C

16.9 C

17.1 C

0 W/m

0.00 mm

20:20

16.9 C

1011.8 hpa

81 %

0.0 km/h aus 117

6.4 km/h aus W

13.7 C

17.1 C

16.9 C

17.1 C

0 W/m

0.00 mm

20:25

16.8 C

1011.8 hpa

81 %

0.0 km/h aus 117

1.6 km/h aus W

13.6 C

17.0 C

16.8 C

17.0 C

0 W/m

0.00 mm

20:30

16.8 C

1011.9 hpa

81 %

0.0 km/h aus 115

3.2 km/h aus W

13.6 C

17.0 C

16.8 C

17.0 C

0 W/m

0.00 mm

20:35

16.8 C

1011.9 hpa

81 %

0.0 km/h aus 115

0.0 km/h aus ---

13.5 C

16.9 C

16.8 C

16.9 C

0 W/m

0.00 mm

20:40

16.7 C

1011.9 hpa

81 %

0.0 km/h aus 116

0.0 km/h aus ---

13.4 C

16.8 C

16.7 C

16.8 C

0 W/m

0.00 mm

20:45

16.6 C

1012.2 hpa

81 %

0.0 km/h aus 117

4.8 km/h aus W

13.3 C

16.7 C

16.6 C

16.7 C

0 W/m

0.00 mm

20:50

16.6 C

1012.2 hpa

81 %

1.6 km/h aus 116

4.8 km/h aus W

13.3 C

16.7 C

16.6 C

16.7 C

0 W/m

0.00 mm

20:55

16.4 C

1012.2 hpa

82 %

3.2 km/h aus 115

6.4 km/h aus WNW

13.4 C

16.6 C

16.4 C

16.6 C

0 W/m

0.00 mm

21:00

16.4 C

1012.3 hpa

82 %

3.2 km/h aus 115

8.0 km/h aus WSW

13.3 C

16.5 C

16.4 C

16.5 C

0 W/m

0.00 mm

21:05

16.3 C

1012.3 hpa

82 %

4.8 km/h aus 117

14.5 km/h aus WNW

13.2 C

16.3 C

16.3 C

16.3 C

0 W/m

0.00 mm

21:10

16.2 C

1012.3 hpa

82 %

3.2 km/h aus 117

8.0 km/h aus W

13.1 C

16.3 C

16.2 C

16.3 C

0 W/m

0.00 mm

21:15

16.1 C

1012.4 hpa

82 %

4.8 km/h aus 115

8.0 km/h aus W

13.0 C

16.2 C

16.1 C

16.2 C

0 W/m

0.00 mm

21:20

16.1 C

1012.4 hpa

82 %

4.8 km/h aus 113

11.3 km/h aus W

13.0 C

16.1 C

16.1 C

16.1 C

0 W/m

0.00 mm

21:25

16.0 C

1012.4 hpa

82 %

4.8 km/h aus 115

11.3 km/h aus W

12.9 C

16.1 C

16.0 C

16.1 C

0 W/m

0.00 mm

21:30

15.9 C

1012.5 hpa

81 %

4.8 km/h aus 117

11.3 km/h aus WSW

12.7 C

15.9 C

15.9 C

15.9 C

0 W/m

0.00 mm

21:35

15.9 C

1012.5 hpa

81 %

6.4 km/h aus 117

11.3 km/h aus W

12.6 C

15.9 C

15.9 C

15.9 C

0 W/m

0.00 mm

21:40

15.8 C

1012.5 hpa

81 %

4.8 km/h aus 116

9.7 km/h aus W

12.6 C

15.8 C

15.8 C

15.8 C

0 W/m

0.00 mm

21:45

15.8 C

1012.6 hpa

81 %

4.8 km/h aus 114

11.3 km/h aus WNW

12.5 C

15.8 C

15.8 C

15.8 C

0 W/m

0.00 mm

21:50

15.7 C

1012.6 hpa

81 %

4.8 km/h aus 116

11.3 km/h aus WSW

12.5 C

15.7 C

15.7 C

15.7 C

0 W/m

0.00 mm

21:55

15.7 C

1012.6 hpa

82 %

4.8 km/h aus 117

9.7 km/h aus SW

12.6 C

15.7 C

15.7 C

15.7 C

0 W/m

0.00 mm

22:00

15.6 C

1012.6 hpa

82 %

3.2 km/h aus 117

9.7 km/h aus WSW

12.5 C

15.6 C

15.6 C

15.6 C

0 W/m

0.00 mm

22:05

15.6 C

1012.6 hpa

82 %

3.2 km/h aus 115

9.7 km/h aus WSW

12.5 C

15.6 C

15.6 C

15.6 C

0 W/m

0.00 mm

22:10

15.5 C

1012.6 hpa

82 %

4.8 km/h aus 113

11.3 km/h aus WSW

12.4 C

15.5 C

15.5 C

15.5 C

0 W/m

0.00 mm

22:15

15.5 C

1012.6 hpa

82 %

4.8 km/h aus 117

11.3 km/h aus W

12.4 C

15.5 C

15.5 C

15.5 C

0 W/m

0.00 mm

22:20

15.5 C

1012.6 hpa

82 %

6.4 km/h aus 117

9.7 km/h aus W

12.4 C

15.5 C

15.5 C

15.5 C

0 W/m

0.00 mm

22:25

15.5 C

1012.6 hpa

82 %

3.2 km/h aus 117

9.7 km/h aus W

12.4 C

15.5 C

15.5 C

15.5 C

0 W/m

0.00 mm

22:30

15.5 C

1012.6 hpa

82 %

3.2 km/h aus 115

8.0 km/h aus WSW

12.4 C

15.5 C

15.5 C

15.5 C

0 W/m

0.00 mm

22:35

15.5 C

1012.6 hpa

83 %

1.6 km/h aus 114

6.4 km/h aus WSW

12.6 C

15.5 C

15.5 C

15.5 C

0 W/m

0.00 mm

22:40

15.5 C

1012.6 hpa

83 %

3.2 km/h aus 118

9.7 km/h aus WSW

12.6 C

15.5 C

15.5 C

15.5 C

0 W/m

0.00 mm

22:45

15.6 C

1012.7 hpa

83 %

3.2 km/h aus 117

8.0 km/h aus SW

12.7 C

15.6 C

15.6 C

15.6 C

0 W/m

0.00 mm

22:50

15.6 C

1012.7 hpa

83 %

3.2 km/h aus 117

9.7 km/h aus WSW

12.7 C

15.6 C

15.6 C

15.6 C

0 W/m

0.00 mm

22:55

15.6 C

1012.7 hpa

83 %

3.2 km/h aus 115

8.0 km/h aus WSW

12.7 C

15.6 C

15.6 C

15.6 C

0 W/m

0.00 mm

23:00

15.6 C

1012.7 hpa

83 %

4.8 km/h aus 114

9.7 km/h aus SW

12.7 C

15.6 C

15.6 C

15.6 C

0 W/m

0.00 mm

23:05

15.5 C

1012.7 hpa

83 %

4.8 km/h aus 116

11.3 km/h aus SW

12.6 C

15.5 C

15.5 C

15.5 C

0 W/m

0.00 mm

23:10

15.4 C

1012.7 hpa

83 %

6.4 km/h aus 117

19.3 km/h aus WSW

12.6 C

15.4 C

15.4 C

15.4 C

0 W/m

0.00 mm

23:15

15.4 C

1012.7 hpa

83 %

3.2 km/h aus 117

9.7 km/h aus W

12.6 C

15.4 C

15.4 C

15.4 C

0 W/m

0.00 mm

23:20

15.3 C

1012.7 hpa

83 %

4.8 km/h aus 115

14.5 km/h aus SW

12.5 C

15.3 C

15.3 C

15.3 C

0 W/m

0.00 mm

23:25

15.3 C

1012.7 hpa

83 %

3.2 km/h aus 115

8.0 km/h aus WSW

12.5 C

15.3 C

15.3 C

15.3 C

0 W/m

0.00 mm

23:30

15.3 C

1012.8 hpa

84 %

3.2 km/h aus 117

9.7 km/h aus SW

12.6 C

15.3 C

15.3 C

15.3 C

0 W/m

0.00 mm

23:35

15.2 C

1012.8 hpa

84 %

4.8 km/h aus 116

9.7 km/h aus SW

12.5 C

15.2 C

15.2 C

15.2 C

0 W/m

0.00 mm

23:40

15.2 C

1012.8 hpa

84 %

3.2 km/h aus 117

8.0 km/h aus WSW

12.5 C

15.2 C

15.2 C

15.2 C

0 W/m

0.00 mm

23:45

15.1 C

1012.8 hpa

84 %

1.6 km/h aus 115

4.8 km/h aus WSW

12.4 C

15.1 C

15.1 C

15.1 C

0 W/m

0.00 mm

23:50

15.1 C

1012.8 hpa

84 %

3.2 km/h aus 113

9.7 km/h aus WSW

12.4 C

15.1 C

15.1 C

15.1 C

0 W/m

0.00 mm

23:55

15.1 C

1012.8 hpa

84 %

4.8 km/h aus 117

9.7 km/h aus WSW

12.4 C

15.1 C

15.1 C

15.1 C

0 W/m

0.00 mm